sat.trackr.live / text

‹ back to catalog

STARLINK-30762

NORAD 58197 · 2023-167Y

PAYLOAD ACTIVE UNKNOWN

§ Identity

Operator
Country
US
Launch date
2023-10-30
Launch site
AFETR
Launch vehicle
Mass (kg)
RCS (m²)

Purposes: comms

External: N2YO · Heavens-Above · Gunter

§ Orbital elements

Epoch: 2026-09-20T00:47:38.921568Z

Period
94.27 min
Inclination
43.0010°
Eccentricity
0.0001456
Mean motion
15.27576060 rev/d
Perigee alt
482.1 km
Apogee alt
484.1 km
Semi-major
6,861.2 km
B*
1.5677e-5
RAAN
126.1644°
Arg perigee
265.5907°
Mean anomaly
94.4778°
Rev number
16,070

§ Raw data

STARLINK-307621 58197U 23167Y   26263.03308937  .00000169  00000+0  15677-4 0  99962 58197  43.0010 126.1644 0001456 265.5907  94.4778 15.27576060160706

JSON: /api/v1/satellites/58197 · /tle

For live sub-satellite position, see the globe view (requires WebGL).

§ Visibility from observer

Set your observer location to see the next 7 days of passes ≥ 10°. The values pass through the URL so the page stays shareable.

No JS? Fill the form by hand. The geolocation button needs JavaScript.